Location: Tel Aviv
(32.0670°N, 34.7670°E)
Time: 13:18:01
(UTC+03:00)

Transit 2A - Pass Details

Date: 27 January 2022
Orbit: 598 x 960 km, 66.7° (Epoch: 20 May)

Event Time Altitude Azimuth Distance (km) Brightness Sun altitude
Rises 08:37:36 0° 157° (SSE) 3,417 10.4 21.1°
Reaches altitude 10° 08:41:08 10° 135° (SE) 2,552 10.9 21.6°
Maximum altitude 08:44:22 15° 102° (ESE) 2,259 9.7 22.1°
Drops below altitude 10° 08:47:42 10° 69° (ENE) 2,651 9.2 22.7°
Sets 08:51:27 0° 48° (NE) 3,631 9.6 23.3°
